GFSSW_850_temp_006.txt.gz
Temp
18 19 19 19 20 20 20 21 21 22 22 23 23 23 23 24 24 24 24 24 25 25 24 23 23 25 26 27 29 30 26 19 21 22 32 34 34 33 32 27 24 24 26 26 24
18 18 19 19 20 20 20 21 21 22 22 23 23 24 24 24 24 25 24 25 25 25 24 24 25 26 28 29 30 31 24 22 27 30 34 35 35 34 26 20 19 26 24 25 24
17 18 19 19 20 20 21 21 22 22 22 23 23 24 24 24 24 27 26 25 25 25 23 25 27 28 29 30 32 32 25 25 26 34 34 35 35 35 25 24 27 25 25 25 25
17 18 18 19 20 20 20 21 22 22 23 23 23 24 24 24 29 26 26 26 26 25 24 27 28 29 30 31 32 33 33 29 34 34 34 35 34 35 35 27 29 27 26 26 25
17 18 18 19 19 20 20 21 21 22 22 23 23 24 24 23 27 27 26 27 26 25 25 27 28 29 30 32 33 33 34 34 34 34 34 34 34 34 31 30 27 26 26 26 26
17 18 18 19 19 20 20 21 21 22 22 23 23 24 23 26 26 27 26 26 26 24 26 28 29 30 31 32 33 34 34 34 34 34 34 35 33 31 31 31 29 28 28 28 27
17 17 18 19 19 20 20 21 22 22 22 23 23 23 22 26 26 25 26 25 25 25 28 28 29 30 31 32 33 33 33 34 34 34 35 34 30 28 30 31 31 30 29 29 27
17 17 18 19 19 20 20 21 22 22 23 23 23 23 24 26 26 25 25 26 27 27 28 29 28 29 30 31 32 32 33 31 34 33 35 34 30 26 30 28 31 31 30 29 28
17 17 18 18 19 20 20 21 22 22 22 23 23 22 27 26 26 26 26 27 27 27 27 28 28 28 30 31 31 32 31 32 23 24 34 34 31 31 29 28 32 31 30 29 28
17 18 18 19 19 20 21 22 23 22 22 22 22 22 25 27 27 27 27 27 27 27 27 27 28 29 30 31 30 32 32 27 19 24 34 34 34 32 31 34 33 31 30 30 28
16 17 18 19 19 20 22 22 22 21 20 25 27 27 29 28 27 27 27 27 27 28 28 28 28 29 31 32 32 33 33 33 22 32 33 33 33 34 34 32 33 32 27 30 29
16 17 18 18 19 20 21 21 22 22 23 25 27 28 29 28 27 27 27 27 28 28 29 30 28 31 33 33 33 33 32 32 33 34 33 33 33 34 25 21 23 28 31 31 29
15 16 17 18 20 20 21 22 21 22 24 26 28 28 29 28 29 29 27 28 29 29 30 30 32 33 32 32 32 32 32 32 32 34 34 33 32 32 22 21 28 30 32 31 30
14 16 17 18 19 20 22 21 22 22 24 29 30 29 29 28 29 29 28 28 30 29 30 31 32 33 32 32 32 31 33 33 32 32 31 34 31 32 26 26 27 26 32 31 30
14 15 16 17 18 19 21 21 21 22 24 32 30 29 29 28 31 29 29 28 29 30 31 31 32 32 31 32 33 32 34 33 32 32 31 32 31 30 31 26 24 25 25 31 30
13 14 15 15 17 20 20 21 22 23 24 30 30 29 30 29 31 31 30 29 29 31 32 32 33 33 33 33 33 33 32 32 31 31 29 31 31 30 26 25 24 27 31 30 28
13 14 15 15 17 19 19 21 23 23 30 31 30 31 30 30 30 31 30 29 28 28 28 31 32 33 33 32 33 32 31 29 28 29 29 31 32 31 32 29 29 30 30 29 26
14 15 16 16 17 18 19 22 21 27 28 32 32 32 31 31 31 31 30 29 29 30 30 29 29 32 33 32 32 31 31 29 28 29 28 28 24 26 32 31 32 31 30 28 25
14 15 15 17 17 16 19 21 23 26 29 30 31 29 30 31 32 31 30 30 30 30 29 30 31 34 34 33 32 32 30 32 30 31 30 29 29 30 32 31 31 31 30 29 25
13 14 17 18 17 17 20 20 25 28 29 29 28 29 29 31 31 31 31 31 31 32 32 31 30 33 34 33 33 32 33 30 30 27 27 30 30 27 26 24 30 30 30 29 25
13 17 20 19 18 18 20 22 25 26 27 27 27 28 29 30 31 31 31 32 32 32 33 32 30 31 33 32 31 31 30 31 31 31 29 29 25 25 22 24 24 30 29 28 25
12 19 19 18 19 20 21 23 24 27 27 27 27 27 28 29 30 30 30 32 33 33 32 32 31 29 31 33 33 33 32 31 29 29 30 30 25 25 19 20 22 28 29 28 25
13 18 19 19 19 21 22 23 25 26 27 27 26 27 28 28 27 29 30 32 32 32 31 32 30 28 29 32 32 31 32 32 31 30 29 29 28 25 22 19 26 29 28 27 23
12 19 19 19 19 21 23 24 24 25 27 26 27 27 27 27 28 27 29 31 31 31 28 29 29 29 29 30 30 30 31 32 31 30 30 30 25 24 22 21 21 22 27 26 23
13 18 19 21 21 21 22 23 24 25 26 25 25 26 27 26 27 27 28 30 31 28 29 29 27 29 30 31 31 31 32 32 31 31 30 30 28 23 19 20 23 24 26 25 24
13 14 15 17 18 20 19 22 23 25 25 25 25 26 27 26 26 26 28 28 28 30 29 29 27 28 28 31 31 31 32 32 32 32 32 32 20 20 19 22 20 20 23 24 24
10 11 12 15 18 19 21 22 23 24 25 25 26 26 26 26 27 27 28 27 28 28 28 27 28 27 27 30 30 29 31 31 32 32 32 28 21 19 20 19 20 22 23 23 23

GFSSW_850_temp_012.txt.gz
Temp
18 18 19 19 20 20 21 21 21 22 22 23 23 23 24 24 24 25 26 26 25 25 24 24 25 24 25 25 26 27 19 20 21 22 25 25 25 23 25 24 24 24 24 24 23
18 18 19 19 19 20 21 21 21 22 22 23 23 24 24 24 25 26 26 26 26 24 24 24 25 25 24 26 27 24 19 22 23 25 26 29 27 25 25 23 23 24 24 23 23
18 18 18 19 20 20 20 21 21 22 22 23 23 24 24 25 26 26 27 27 26 25 25 25 24 25 25 27 27 25 24 25 26 28 27 27 28 28 25 23 24 25 23 23 23
17 18 18 19 19 20 20 21 21 22 22 23 23 24 25 25 26 26 27 27 26 25 25 25 25 25 26 26 28 27 28 28 29 29 29 26 28 27 28 28 27 26 24 23 23
17 18 18 19 19 20 20 21 21 22 22 23 23 24 24 24 27 26 27 27 26 26 26 26 25 26 26 26 27 27 28 30 30 29 29 30 27 28 27 28 26 24 24 23 23
17 18 18 19 19 20 20 21 21 22 22 23 23 24 23 23 26 26 26 27 27 26 26 25 26 27 27 27 27 29 29 29 28 28 28 29 28 29 26 27 24 23 22 22 22
17 17 18 19 19 20 20 21 22 22 22 22 23 23 23 26 26 26 26 26 26 27 26 27 27 27 27 26 28 28 27 27 27 27 27 29 28 26 26 25 24 21 21 19 19
17 17 18 18 19 20 21 21 22 22 22 22 23 23 25 26 26 26 26 26 26 26 26 27 27 27 28 28 27 26 23 24 27 27 27 28 25 24 25 24 21 22 23 24 23
17 17 18 18 19 20 21 21 22 22 23 22 22 22 24 25 26 26 26 27 27 27 27 27 27 27 27 23 21 21 24 23 26 27 25 27 26 24 24 22 21 21 22 24 20
16 17 18 18 19 20 21 21 22 22 22 22 21 21 25 26 26 26 26 26 26 26 25 26 27 22 20 20 20 24 24 23 24 27 26 26 25 25 24 18 17 22 22 21 20
16 16 17 18 19 20 22 21 22 22 22 23 23 24 25 26 27 27 26 26 26 27 24 26 22 20 21 22 23 25 25 25 25 26 26 25 25 25 22 19 19 19 19 21 21
15 16 17 18 19 20 20 21 21 21 20 22 23 23 26 26 25 27 27 26 26 23 25 23 21 23 24 24 25 25 25 24 25 26 24 25 25 22 19 18 19 20 25 21 17
15 16 17 19 19 20 20 20 21 21 20 21 24 25 27 26 25 27 27 27 25 24 24 21 24 26 25 25 25 25 26 26 26 27 25 24 24 23 21 21 19 20 25 22 19
14 15 16 18 19 20 20 20 21 21 16 20 22 25 26 27 26 27 27 27 25 24 24 23 26 26 26 26 26 24 27 27 28 26 24 24 22 23 21 19 19 19 21 21 21
14 15 16 16 18 19 19 20 21 21 19 26 26 28 27 27 28 28 28 27 24 25 23 23 26 26 26 27 27 25 27 27 29 25 24 25 22 21 23 20 19 19 20 22 23
14 14 16 15 17 19 19 20 21 17 19 25 28 26 25 27 28 28 27 27 27 25 25 24 27 27 26 28 28 29 29 22 21 20 21 23 23 21 21 23 22 22 20 21 21
14 15 15 16 18 18 18 20 15 16 22 26 26 26 24 24 26 26 25 24 23 22 21 23 25 26 28 26 28 27 21 20 21 20 21 22 22 20 19 23 24 23 22 23 24
15 15 16 17 17 17 18 15 16 19 20 24 24 25 24 24 25 25 23 22 22 23 21 21 22 25 28 26 26 26 21 19 22 20 21 22 23 22 20 21 23 26 23 22 21
15 16 17 18 17 17 17 13 15 18 23 23 23 24 23 25 26 24 22 24 25 22 22 21 22 27 27 28 27 26 24 22 21 21 20 20 22 20 21 22 22 22 21 21 22
14 15 18 17 17 16 13 13 16 21 21 20 22 23 22 23 24 24 23 24 26 26 23 22 22 26 28 29 27 27 25 24 18 23 22 20 21 19 20 23 20 15 17 19 19
14 13 17 17 16 16 12 13 18 21 21 20 19 20 22 22 22 22 23 25 27 26 25 22 22 26 27 26 24 25 25 22 19 18 20 19 19 19 19 20 18 16 17 20 21
12 10 16 16 14 13 13 17 19 20 20 20 21 20 22 23 22 23 24 24 27 28 23 22 19 21 23 25 28 26 24 21 19 22 18 18 20 19 20 18 20 17 18 20 22
10 12 16 16 12 11 14 17 19 19 19 20 20 22 23 23 23 22 23 26 26 25 25 22 19 20 23 23 25 27 25 22 18 17 20 19 20 18 18 18 18 18 17 19 21
10 8 15 16 17 14 15 15 17 20 20 21 20 21 20 22 20 22 22 25 26 26 28 24 18 21 23 22 24 26 26 26 21 19 21 20 20 17 17 17 16 17 19 19 19
10 9 10 8 11 11 14 15 16 17 20 21 19 20 20 21 21 20 21 22 24 25 25 21 22 23 22 24 26 26 26 26 24 23 23 23 22 20 17 15 17 19 19 21 21
8 8 9 9 12 12 13 16 16 16 18 18 19 20 21 19 19 20 20 21 23 22 21 18 22 24 24 25 25 26 25 25 27 28 24 20 21 18 17 18 17 18 18 18 19
7 8 7 10 10 11 12 13 14 14 15 17 17 18 19 20 22 23 23 22 22 23 21 20 19 18 21 22 23 23 26 26 26 26 23 22 21 17 16 17 17 18 16 17 20

GFSSW_850_temp_015.txt.gz
Temp
18 18 19 19 19 20 20 20 21 21 21 22 22 23 23 23 23 24 25 25 25 25 25 24 25 24 24 25 25 25 20 21 21 22 24 25 23 24 24 24 23 23 23 23 22
17 18 18 19 19 20 20 20 21 21 22 22 22 23 23 24 24 25 25 25 26 25 25 25 24 24 25 25 26 23 20 23 22 24 25 24 24 25 24 23 23 22 23 23 22
17 18 18 19 19 20 20 20 21 21 22 22 23 23 24 24 25 26 26 25 25 25 24 24 24 24 24 25 26 23 23 24 26 25 27 25 26 26 24 23 24 22 22 23 22
17 18 18 19 19 20 20 21 21 21 22 22 23 23 24 25 25 26 26 26 25 25 24 24 24 24 24 25 27 25 26 27 28 29 27 25 27 25 25 26 27 23 23 22 21
17 18 18 18 19 20 20 21 21 21 22 22 23 23 24 24 26 26 26 26 26 25 25 24 25 25 25 25 26 25 27 28 29 29 28 28 26 26 25 26 25 23 22 22 22
17 17 18 18 19 20 20 20 21 22 22 22 23 23 23 23 26 26 26 26 26 26 25 25 26 26 26 26 26 27 27 27 27 28 28 27 26 28 24 25 23 22 22 23 23
17 17 18 18 19 19 20 21 21 22 22 23 23 23 23 26 26 25 26 25 26 26 26 26 26 26 26 25 27 27 26 24 26 27 26 28 26 26 24 23 22 22 22 23 24
16 17 17 18 19 19 20 21 21 22 22 23 23 23 24 25 25 25 25 25 25 26 26 26 25 25 26 27 25 24 23 23 26 26 27 27 24 22 23 22 21 22 22 24 25
16 17 17 18 19 20 20 21 22 22 23 23 22 22 24 25 25 25 25 26 25 26 26 26 25 26 25 22 20 20 22 23 23 26 26 25 22 22 23 21 20 22 23 24 25
16 16 17 18 18 20 20 21 22 22 22 22 21 22 25 25 25 26 25 25 26 25 25 25 25 20 18 19 20 22 23 23 23 26 26 24 21 21 21 20 20 22 23 24 22
16 17 17 18 19 20 21 21 21 21 21 22 22 23 25 25 25 26 26 25 25 25 23 24 21 20 21 21 22 24 23 23 24 25 26 24 22 22 20 20 19 21 23 23 19
15 16 17 19 19 19 20 20 18 16 17 22 23 22 25 24 24 26 26 25 24 22 23 21 20 21 22 22 23 23 22 22 23 25 25 23 20 21 18 19 19 21 21 19 20
15 16 17 19 19 19 20 19 19 20 18 21 22 23 26 25 24 26 26 25 24 22 22 21 23 24 23 24 23 23 22 23 24 25 24 24 20 19 19 18 19 20 20 19 22
14 16 17 18 19 19 20 20 20 21 15 19 21 24 25 25 24 26 26 26 24 23 22 22 23 24 24 24 23 22 23 25 25 25 24 24 22 20 19 17 18 19 19 20 21
15 15 16 16 18 18 19 20 21 21 19 24 24 25 25 26 27 26 27 26 23 24 22 22 25 25 24 24 24 23 25 25 26 23 23 24 21 21 18 19 17 19 20 20 21
14 14 15 16 17 18 19 20 21 16 18 23 25 24 24 26 27 26 26 26 26 24 24 22 26 25 24 26 26 26 26 21 18 18 21 22 22 21 19 21 19 20 21 22 22
14 14 15 16 17 17 19 20 15 16 21 23 23 24 23 23 25 25 23 23 22 21 20 22 23 24 26 25 25 23 20 19 21 19 20 21 21 20 21 21 22 21 23 22 22
14 15 16 17 17 16 18 15 16 18 18 21 23 22 23 24 24 25 22 21 21 21 19 21 21 24 25 24 25 23 21 19 21 19 21 20 22 22 21 21 21 22 21 21 20
15 15 17 18 17 17 17 13 14 16 20 20 20 21 21 23 25 24 21 21 22 20 22 19 21 25 26 27 26 25 23 21 18 18 20 19 21 22 21 19 18 18 18 21 19
14 15 16 16 17 17 13 12 15 17 20 19 20 20 21 21 23 22 21 23 23 22 22 22 21 23 26 27 26 24 22 22 17 21 22 19 21 19 19 18 17 17 17 20 19
14 14 15 15 16 16 12 12 16 19 20 19 19 20 21 22 22 22 22 25 25 24 22 20 21 23 26 25 25 24 23 18 17 17 19 19 19 18 18 17 17 17 20 23 22
12 11 14 14 13 10 12 15 18 18 19 19 18 18 19 21 21 22 22 24 24 24 21 20 17 20 21 23 24 25 23 20 19 22 17 17 19 18 16 16 18 17 20 22 20
10 12 13 13 10 10 13 16 18 18 18 18 19 20 20 20 20 20 22 25 24 24 23 20 18 21 21 21 24 25 23 18 16 16 17 19 19 16 17 16 17 16 17 17 17
10 9 14 14 13 12 13 15 16 19 18 18 18 19 19 19 18 20 22 23 24 24 23 22 16 20 23 21 22 25 25 22 19 19 19 18 22 16 16 16 16 16 17 17 17
10 7 8 8 10 9 11 14 15 15 17 18 18 18 17 17 20 19 21 20 22 23 21 19 20 20 22 22 24 24 26 22 22 21 22 23 20 19 17 15 16 19 18 17 18
8 7 9 8 9 10 9 11 13 13 15 15 15 15 15 16 18 21 21 20 20 21 22 17 21 22 23 23 24 25 25 26 26 23 23 21 20 19 16 17 17 18 18 17 19
7 7 7 8 7 9 10 12 13 13 14 15 15 14 16 17 15 16 20 22 21 21 19 19 17 17 21 20 22 22 25 25 26 25 22 23 22 15 15 16 17 19 19 17 19

GFSSW_850_temp_021.txt.gz
Temp
17 17 18 18 19 19 20 20 21 21 22 22 23 23 24 24 25 25 25 26 26 25 24 25 25 24 25 25 25 25 28 26 27 27 29 26 27 24 24 24 23 23 23 22 22
17 17 18 18 18 19 20 20 21 21 21 22 23 24 24 25 25 25 25 26 26 25 24 24 25 24 25 25 25 27 28 27 27 27 29 28 27 25 25 24 23 22 23 23 22
17 17 18 18 18 19 19 20 21 21 22 22 23 24 24 25 25 25 26 26 25 25 24 24 24 24 25 25 25 25 29 27 28 27 27 28 27 26 26 25 25 24 22 22 22
17 17 17 18 18 19 19 20 21 21 22 22 23 23 24 24 26 25 26 25 25 25 24 23 24 25 26 27 25 28 27 26 28 27 26 27 26 26 26 28 27 26 25 24 22
17 17 17 18 18 19 19 20 20 21 22 22 22 23 24 24 25 25 26 26 25 25 24 24 24 24 26 26 26 27 28 27 27 26 26 26 27 27 26 25 25 25 24 24 20
16 17 17 18 18 19 19 20 21 21 22 22 22 23 23 23 25 25 25 25 25 24 24 24 24 24 25 26 27 26 26 27 27 27 27 27 27 26 26 23 24 22 22 21 20
16 17 17 18 18 19 19 20 21 21 22 23 23 23 23 25 25 25 25 24 24 24 24 24 24 24 25 27 25 25 28 28 28 27 28 26 28 27 23 22 22 21 21 20 19
16 17 17 18 18 19 19 20 21 22 22 22 22 22 23 24 25 25 25 25 24 24 24 24 24 25 24 25 26 27 27 29 28 27 27 28 29 26 22 22 22 21 20 19 20
16 16 17 18 18 19 20 20 21 21 21 22 22 22 23 24 24 24 24 24 24 24 24 24 24 24 24 26 27 26 28 27 28 27 28 28 28 23 22 22 22 21 21 19 20
15 16 17 18 19 19 20 21 21 21 21 21 21 21 22 24 24 24 24 24 24 24 24 24 23 25 24 26 27 27 27 26 26 28 28 27 28 25 22 22 22 22 21 20 19
15 16 17 17 19 19 20 21 21 21 21 22 22 22 23 23 23 24 24 24 24 24 25 23 26 26 26 25 25 25 25 25 26 27 26 27 26 25 23 22 22 22 20 20 19
15 15 17 17 19 19 19 20 19 18 18 22 22 22 23 23 23 23 24 24 24 25 24 25 25 26 24 23 24 24 25 26 27 26 26 26 27 25 23 23 22 23 22 20 20
14 15 16 17 18 19 19 19 19 19 17 20 21 21 23 23 23 23 23 24 25 24 24 25 25 22 25 24 24 25 25 26 26 26 25 25 28 26 24 21 21 21 21 20 20
14 15 16 17 18 18 18 18 19 19 21 23 22 22 22 23 24 25 24 25 24 25 24 24 25 24 24 25 25 26 25 26 26 26 27 24 28 26 25 24 23 22 21 21 20
13 14 15 17 17 18 18 18 19 19 22 23 22 22 22 23 24 24 24 25 25 24 24 25 24 24 24 25 25 26 25 25 25 26 26 26 28 29 23 26 26 23 22 21 20
13 14 15 16 17 17 18 19 19 21 21 23 23 23 23 24 24 23 23 25 24 24 24 25 24 26 27 26 26 26 26 24 23 26 27 26 26 29 28 26 25 24 22 22 21
14 14 15 16 17 17 18 19 20 20 22 23 23 23 24 24 25 24 25 25 25 23 24 24 26 26 26 26 25 25 26 26 26 26 27 23 25 28 26 24 24 24 23 22 21
14 15 16 16 16 17 18 20 18 20 20 21 22 22 24 24 25 24 24 24 23 24 23 25 26 24 25 26 27 26 27 27 25 26 27 23 26 29 23 22 21 22 22 21 21
14 15 16 16 17 16 17 19 20 19 20 20 22 23 23 23 24 25 25 25 25 25 25 24 25 25 25 26 27 24 26 26 24 20 25 26 26 27 22 23 21 22 21 21 20
15 15 14 15 16 16 18 16 17 17 19 20 22 21 23 23 24 25 23 24 25 24 26 24 25 25 26 26 24 26 25 26 25 24 25 25 24 27 25 25 23 21 21 21 18
14 13 13 14 15 15 18 17 16 17 18 20 20 21 21 22 22 23 23 24 24 23 23 24 25 26 26 27 27 25 26 24 25 24 27 26 28 26 26 26 25 22 21 20 19
13 14 12 13 14 10 16 15 17 18 18 19 19 20 21 21 22 23 24 24 23 23 24 24 24 24 26 25 25 26 26 26 27 24 23 25 28 25 23 23 22 22 21 19 18
11 11 12 13 15 14 14 17 17 18 19 19 19 19 20 20 21 21 22 23 22 24 23 22 23 24 25 26 24 26 25 24 22 23 24 26 28 23 22 21 21 22 20 18 18
10 13 12 13 11 13 15 15 17 16 17 17 19 19 19 20 19 21 22 23 22 23 21 23 21 24 27 27 26 25 24 23 25 26 25 27 27 28 25 23 21 20 19 18 19
9 8 8 13 13 12 13 14 16 16 16 16 17 17 17 19 19 20 21 22 23 21 21 23 24 22 24 24 25 27 27 25 25 26 27 28 26 28 27 24 23 20 19 18 18
7 8 7 9 8 12 11 13 15 15 16 16 16 16 16 17 18 19 17 20 21 23 22 20 24 22 24 24 24 25 26 26 26 25 25 25 26 26 22 19 20 20 19 18 17
7 7 7 7 10 12 13 13 13 13 15 15 15 16 16 16 15 16 15 16 17 17 20 21 22 23 25 23 25 25 26 26 26 26 27 26 27 23 24 21 20 20 19 18 17

GFSSW_850_temp_027.txt.gz
Temp
18 19 19 19 20 20 21 21 21 22 22 23 23 24 24 25 25 25 26 26 25 26 26 26 27 29 29 31 31 32 34 34 34 34 35 35 35 32 31 30 30 29 29 28 24
18 18 19 19 20 20 21 21 21 22 22 23 24 24 25 26 26 26 25 26 26 26 25 27 29 30 31 33 33 34 35 34 35 35 35 34 34 34 33 31 29 28 27 26 24
18 18 19 19 20 20 21 21 22 22 23 24 24 24 25 25 25 26 26 26 26 26 25 28 29 30 33 33 34 35 35 35 35 33 34 35 35 34 34 34 31 29 27 26 25
18 18 19 19 20 20 21 21 22 22 23 24 24 25 26 26 30 26 26 26 26 25 26 28 29 31 33 34 33 34 34 34 34 34 34 35 34 34 34 33 31 30 27 26 25
18 18 19 19 20 20 21 22 22 22 23 24 24 25 26 27 27 26 26 26 25 25 28 29 31 32 33 34 33 34 34 33 34 34 33 33 34 34 34 32 30 29 28 27 26
17 18 19 19 20 20 21 21 22 23 23 24 24 24 24 29 25 26 24 25 26 27 28 29 31 31 32 33 33 33 33 34 34 34 34 33 34 34 32 31 30 29 28 27 27
17 18 18 19 20 20 21 22 22 23 23 24 24 24 24 28 25 24 24 26 26 28 29 28 29 30 32 33 32 33 33 35 35 34 35 34 34 34 32 31 30 29 28 28 27
16 17 18 19 19 20 21 22 22 23 23 23 24 24 27 26 25 25 26 26 26 27 28 28 28 30 31 32 32 33 34 34 36 35 34 34 33 34 32 32 30 29 28 28 26
16 17 18 18 19 20 21 21 22 23 23 23 23 23 29 26 25 26 26 27 27 27 27 27 28 31 32 33 34 34 34 34 35 34 34 34 34 33 33 32 30 29 28 27 26
16 17 17 18 19 20 21 21 22 23 22 23 23 24 26 28 27 26 26 27 28 28 28 28 30 33 34 34 33 34 34 35 33 34 34 34 34 35 33 32 31 29 27 26 25
16 17 17 18 19 20 21 21 21 21 21 27 28 28 28 27 25 26 26 27 28 29 31 30 32 32 34 34 33 33 33 33 34 34 33 34 34 35 33 33 32 30 27 26 26
15 16 17 18 19 20 20 22 21 20 25 27 27 27 26 27 28 28 27 28 29 30 31 31 31 34 33 32 32 33 32 33 34 34 33 34 34 35 35 33 33 31 29 27 26
15 16 17 18 19 19 19 21 19 20 25 29 27 27 27 27 29 29 27 29 30 31 32 32 33 32 31 32 31 33 33 33 33 33 34 33 33 34 35 33 32 31 31 28 28
14 15 16 18 19 18 20 19 19 20 26 29 28 28 28 28 29 29 28 30 31 31 32 32 33 31 31 31 32 32 34 33 32 32 33 34 32 33 34 34 33 31 30 30 28
14 15 16 16 18 19 19 19 19 20 26 31 29 27 28 29 31 29 28 29 31 31 31 32 31 31 31 32 32 33 33 32 32 32 33 33 33 34 34 33 34 33 31 30 28
14 15 15 16 17 18 18 19 19 25 26 29 29 29 29 29 30 30 29 29 30 31 31 32 31 32 32 32 32 33 32 32 32 33 32 33 33 33 34 33 34 33 31 30 28
14 15 15 16 18 17 18 20 24 26 30 29 29 30 30 30 31 29 30 29 30 28 29 31 31 32 32 31 32 32 31 31 31 32 32 33 32 33 34 34 33 32 31 30 28
15 15 16 16 15 16 18 23 24 29 30 30 30 31 30 31 31 30 30 29 31 31 32 30 30 32 32 32 32 31 32 31 30 31 31 32 31 32 34 33 32 31 30 29 28
15 14 14 15 16 16 20 23 26 29 29 28 29 29 30 31 31 30 30 31 31 32 30 31 31 32 32 33 32 32 31 33 31 32 32 33 34 34 34 34 33 31 30 29 28
15 16 17 15 15 16 22 23 28 27 26 27 28 29 29 30 29 30 30 32 32 32 32 32 30 32 32 32 32 32 33 31 32 29 29 32 32 32 32 33 32 30 30 28 28
15 18 16 15 16 19 23 25 27 25 25 26 28 28 29 30 30 31 31 31 32 32 32 32 30 31 31 30 31 31 31 31 33 32 30 30 29 26 32 33 33 31 29 27 27
15 21 16 16 20 22 24 26 24 26 24 27 26 28 28 28 29 30 31 31 31 32 31 32 31 30 31 33 33 33 32 32 31 30 32 31 32 33 34 33 32 31 28 27 27
17 19 16 17 22 24 25 26 25 26 26 27 27 27 27 28 27 29 30 30 29 31 31 31 30 29 29 32 32 31 32 32 32 31 30 29 31 26 33 32 31 31 28 26 26
16 21 19 18 21 21 24 23 24 24 25 26 27 26 27 27 27 28 29 29 28 30 26 28 30 29 30 28 31 30 31 32 31 30 31 32 32 32 33 33 30 30 26 25 24
17 20 18 21 22 22 23 23 24 23 23 24 25 25 26 26 27 26 29 29 28 26 28 29 28 30 30 31 32 32 32 32 31 31 30 31 27 26 30 30 30 29 25 25 24
15 17 18 20 18 20 18 22 22 24 24 24 24 26 26 25 26 26 28 28 28 29 29 29 27 28 30 31 31 31 31 31 32 31 31 32 31 33 31 29 30 28 25 25 24
12 13 14 18 19 21 22 22 22 23 23 23 24 25 24 25 25 24 24 24 25 26 27 28 28 27 27 30 31 29 31 31 32 32 32 31 31 31 31 29 28 28 26 25 24

GFSSW_850_temp_033.txt.gz
Temp
18 19 19 20 20 21 21 22 22 22 23 23 24 24 25 26 26 26 26 27 27 28 28 29 30 30 30 30 31 30 21 21 23 28 31 33 30 30 31 30 29 29 26 25 24
19 19 19 20 20 21 21 22 22 22 23 23 24 25 25 26 26 26 27 27 27 28 27 27 29 31 31 31 31 28 23 24 29 32 33 34 31 30 28 29 27 26 25 25 24
18 19 19 20 20 21 21 22 22 23 23 24 24 25 25 26 26 26 27 28 28 28 28 28 29 30 31 32 30 30 27 28 32 34 35 34 30 29 27 25 28 26 25 25 24
18 19 19 20 20 21 21 22 23 23 23 24 25 25 26 26 27 28 28 28 28 28 28 29 30 30 30 31 31 28 30 32 34 34 34 33 30 27 28 29 28 27 25 25 25
18 18 19 20 20 21 22 22 23 23 24 24 25 26 26 26 27 28 28 28 28 28 29 30 31 32 30 32 34 32 33 34 35 34 34 34 33 30 31 30 28 27 26 25 25
17 18 19 20 20 21 22 22 23 23 24 24 25 25 26 25 28 27 28 28 28 28 29 30 31 31 32 32 32 33 33 34 34 35 35 32 30 33 31 29 28 27 26 26 26
17 18 18 19 20 21 22 22 23 23 24 24 25 25 26 27 27 27 28 28 28 28 29 30 30 30 31 29 33 34 31 31 33 34 33 33 29 31 32 30 28 27 27 27 26
17 18 18 19 20 21 22 23 23 24 24 24 25 24 27 28 28 27 27 28 28 28 29 29 29 30 30 32 32 32 30 28 31 33 32 32 28 30 32 31 29 28 28 27 27
17 17 18 19 20 21 22 23 23 24 24 24 24 23 25 27 28 28 27 28 29 29 29 29 29 30 31 28 26 28 26 29 32 34 33 33 28 29 32 31 30 29 29 28 27
16 17 18 19 20 21 22 23 24 24 24 24 24 23 27 27 28 28 28 28 29 29 29 29 29 26 26 26 25 29 30 30 30 32 33 32 30 30 31 31 30 30 29 28 27
16 17 18 19 20 21 23 24 24 23 23 24 26 27 28 29 29 29 28 28 29 29 27 30 26 25 26 28 31 31 30 30 32 33 32 32 30 30 32 30 29 29 29 28 27
16 17 17 18 20 20 22 22 22 23 23 25 26 26 28 29 28 28 29 28 29 26 28 27 26 28 32 32 31 31 30 29 31 32 31 32 30 30 30 30 29 28 28 28 27
15 16 17 18 20 20 21 22 22 23 23 25 27 27 28 29 29 29 29 28 28 27 28 26 29 32 33 31 31 30 30 29 30 32 32 31 28 28 31 32 29 29 28 28 27
15 16 17 19 20 20 21 22 22 23 19 26 27 29 29 29 29 29 29 29 29 28 29 28 31 32 32 31 31 28 30 32 32 28 26 30 24 26 28 29 29 28 28 28 27
15 16 16 18 19 20 20 21 22 22 20 29 29 30 29 29 31 30 30 29 28 29 30 28 30 31 30 31 31 29 32 31 30 28 28 27 25 26 27 27 26 28 28 28 28
14 15 16 17 19 19 20 21 21 20 21 30 30 29 28 30 29 31 30 30 30 29 30 29 32 32 32 32 32 32 30 30 28 26 23 25 26 24 26 27 23 26 29 28 27
14 15 16 17 18 18 19 20 19 19 28 29 28 28 27 28 29 30 29 27 25 26 25 28 30 32 33 30 31 31 27 22 23 23 22 25 27 25 28 28 27 26 28 28 27
15 16 17 18 18 18 19 19 19 25 25 28 29 28 27 28 28 29 28 26 27 27 25 25 25 29 31 29 29 28 25 21 25 23 23 27 25 26 26 28 31 31 30 28 27
15 16 17 18 18 18 18 17 20 24 28 28 28 28 27 29 29 28 27 27 28 27 25 26 27 32 32 32 30 29 26 26 25 26 24 24 27 27 26 27 29 30 30 28 27
15 16 17 17 18 18 16 17 22 26 27 28 26 29 28 29 28 27 27 28 29 30 29 27 26 31 32 32 31 29 29 25 22 25 24 25 25 23 24 24 25 25 29 28 27
15 15 18 18 17 17 15 18 23 25 26 27 26 25 26 26 29 28 27 30 30 30 30 27 26 27 30 29 28 27 26 27 24 23 23 23 23 23 21 21 22 19 26 29 27
15 15 18 18 17 18 17 21 23 24 25 27 27 27 26 26 27 27 28 29 32 32 28 28 26 25 27 29 30 28 27 25 21 24 22 23 22 22 21 22 18 18 23 25 28
12 16 18 18 16 17 20 22 23 23 24 27 26 27 28 25 24 26 28 30 30 28 26 26 24 23 24 26 28 29 30 30 25 22 24 23 21 22 21 18 17 17 21 22 25
11 16 18 17 19 18 19 20 22 25 25 27 25 26 26 26 24 25 26 29 29 28 29 28 25 24 22 26 27 29 29 29 25 22 23 24 23 19 18 18 19 17 19 22 25
13 17 16 17 18 18 19 20 22 23 26 26 23 25 25 25 23 24 27 27 29 27 28 25 24 25 25 27 28 28 29 27 27 24 24 26 21 18 17 17 18 25 28 26 21
13 14 14 16 19 19 19 20 22 23 24 24 23 24 24 25 23 23 23 23 23 26 27 23 23 26 24 27 28 28 28 27 28 27 28 21 20 18 17 21 21 22 25 23 22
12 12 14 16 18 19 19 21 23 23 24 25 25 24 23 21 22 24 25 26 25 23 22 24 23 23 22 25 25 24 26 27 27 26 26 26 20 17 17 16 18 21 25 24 23

GFSSW_850_temp_036.txt.gz
Temp
19 19 20 20 20 21 21 22 22 22 23 24 24 25 25 26 26 26 27 27 27 28 28 29 30 30 29 30 30 30 23 26 27 28 29 30 29 28 28 26 26 26 25 24 23
19 19 19 20 20 21 21 22 22 23 23 24 24 25 25 26 26 27 27 27 28 28 28 28 30 30 30 30 30 25 22 25 27 29 29 30 29 29 27 26 25 25 24 23 23
19 19 19 20 20 21 22 22 22 23 23 24 24 25 26 26 27 27 28 27 28 28 28 29 30 29 30 31 30 26 24 25 27 28 30 30 29 29 26 24 25 24 24 23 23
18 19 19 20 20 21 22 22 23 23 23 24 24 25 26 26 26 27 28 28 28 28 29 29 29 29 29 28 31 29 29 28 31 32 32 29 29 28 29 27 26 26 24 24 23
18 19 19 20 20 21 22 22 23 23 24 24 24 25 26 26 27 27 28 28 28 29 28 28 29 29 28 29 29 28 31 31 32 34 34 31 30 29 29 28 25 25 24 24 24
18 18 19 20 20 21 22 22 23 23 24 24 24 25 25 24 27 27 28 28 28 28 29 29 29 30 30 29 29 31 32 32 34 33 33 31 29 30 28 27 25 25 25 24 24
18 18 19 20 21 21 22 22 23 24 24 24 24 25 25 28 27 27 28 28 28 28 29 29 29 30 29 28 31 32 31 29 31 32 31 31 29 27 28 27 25 25 25 25 25
17 18 19 20 21 21 22 23 23 24 24 24 24 24 26 27 27 27 27 28 28 28 29 29 29 29 29 30 30 28 27 27 29 30 33 30 27 28 27 26 26 25 25 25 25
17 18 18 19 20 21 22 23 24 24 24 24 24 23 26 27 27 27 27 28 28 28 29 29 29 29 29 26 23 23 26 27 28 30 31 30 28 29 27 27 26 26 25 26 25
17 17 18 19 20 21 22 23 24 24 24 24 24 23 27 28 28 28 27 28 28 29 29 29 29 24 22 22 23 26 27 28 28 31 31 29 29 29 29 27 26 26 26 26 26
16 17 18 19 20 21 23 23 24 23 23 24 24 24 27 28 28 28 28 28 28 28 26 28 24 23 24 24 26 27 28 28 30 31 31 30 30 29 29 29 27 26 26 27 26
16 17 18 19 20 21 21 22 22 21 21 24 25 25 26 27 27 28 28 28 28 25 26 24 24 26 27 28 28 30 29 28 29 31 30 30 30 28 27 28 28 27 26 27 26
15 16 18 19 20 21 21 21 22 22 21 23 26 27 28 28 27 29 28 28 27 25 25 24 26 29 28 30 30 28 29 28 28 29 28 28 26 27 28 27 28 27 27 27 26
15 16 17 19 20 20 20 21 21 22 16 20 24 27 28 27 28 29 29 28 27 26 26 26 28 29 29 30 29 28 29 29 29 26 26 26 23 24 23 25 26 26 26 27 26
15 16 16 18 19 20 20 21 22 22 19 26 26 29 29 28 29 29 29 28 26 27 28 26 28 28 30 30 30 27 29 30 29 25 25 25 23 23 23 25 25 25 27 27 26
14 15 16 17 19 19 20 21 22 17 19 25 28 26 25 27 28 29 29 29 29 27 27 26 29 30 28 30 30 31 27 23 21 21 22 24 23 23 25 27 25 25 26 26 26
15 15 17 17 18 18 20 21 16 17 23 26 27 25 24 25 26 27 27 26 25 25 24 26 27 29 32 30 27 27 21 19 22 21 22 23 23 22 25 26 27 25 27 27 26
15 16 17 18 18 18 19 16 18 20 21 25 27 26 24 25 25 27 26 25 24 24 23 24 24 28 30 28 27 26 22 19 23 21 22 23 24 24 24 26 30 30 28 26 26
16 17 18 18 18 18 19 14 16 19 25 24 24 24 24 25 26 25 24 24 25 24 24 23 24 28 29 29 27 27 24 23 22 21 21 21 25 25 24 21 21 25 25 25 25
16 17 18 17 18 18 14 13 17 22 23 22 23 23 24 25 24 23 23 25 26 26 25 24 24 26 29 29 29 27 26 25 19 24 24 21 24 22 22 22 22 21 22 22 21
16 16 18 17 17 17 12 12 19 22 23 22 23 24 24 24 24 22 25 27 26 26 24 22 23 26 28 27 26 26 25 22 20 19 21 21 21 20 19 20 20 21 23 24 24
15 12 17 17 15 13 12 18 20 21 22 22 23 25 25 24 24 24 23 26 29 29 25 22 20 22 28 27 28 25 25 21 20 23 19 19 19 18 18 18 22 25 24 28 25
13 14 17 17 12 12 15 18 20 20 21 22 22 24 24 25 24 23 24 27 28 27 25 23 21 22 23 23 25 28 26 23 19 18 22 21 18 18 17 19 25 26 28 28 25
12 11 17 17 17 16 16 17 18 22 22 23 23 24 23 23 23 23 24 27 27 27 26 24 19 22 21 24 24 26 26 26 21 20 21 20 17 16 17 18 18 22 25 21 23
12 12 13 11 14 15 16 17 18 19 22 24 23 23 22 23 21 21 22 22 25 25 26 21 21 24 23 25 26 26 26 25 25 23 24 23 20 18 16 15 17 17 19 21 21
12 11 12 12 14 14 13 17 19 19 21 21 23 23 19 18 19 20 20 21 22 21 21 18 21 23 22 25 24 25 25 26 26 26 24 21 21 16 16 16 18 18 19 19 19
11 11 11 13 12 13 14 16 20 21 22 23 21 19 18 19 21 22 21 22 22 22 20 19 19 19 23 24 23 22 25 26 23 22 23 23 19 16 15 16 17 17 20 21 20